Tracking 27097 objects as of 29-Mar-2023
HD Live streaming from Space Station
objects crossing your sky now

ONEWEB-0673

Track ONEWEB-0673 now!
10-day predictions
ONEWEB-0673 is classified as:


NORAD ID: 55832
Int'l Code: 2023-029AN
Perigee: 609.1 km
Apogee: 625.2 km
Inclination: 86.6 °
Period: 96.9 minutes
Semi major axis: 6988 km
RCS: Unknown
Launch date: March 9, 2023
Source: United Kingdom (UK)
Launch site: AIR FORCE EASTERN TEST RANGE (AFETR)
Your satellite tracking list
Your tracking list is empty




NASA's NSSDC Master Catalog

Two Line Element Set (TLE):
1 55832U 23029AN  23088.00001157 -.00023643  00000-0 -27100-2 0  9996
2 55832  86.5509 190.8816 0011454 143.8572 310.1865 14.86139030  3570
Source of the keplerian elements: AFSPC